{"data":{"norad_id":57946,"epoch":"2026-09-20T06:25:12.750816Z","epoch_age_seconds":157708,"freshness":"FRESH","line1":"1 57946U 23148M   26263.26750869 -.00000060  00000+0  93654-5 0  9999","line2":"2 57946  53.1596 274.4561 0001343  69.8162 290.2985 15.34392428167150","mean_motion":15.34392428,"eccentricity":0.0001343,"inclination_deg":53.1596,"raan_deg":274.4561,"arg_perigee_deg":69.8162,"mean_anomaly_deg":290.2985,"bstar":9.3654e-6,"rev_number":16715,"period_min":93.848221206159,"perigee_km":461.80701801261,"apogee_km":463.64447374616,"semimajor_km":6840.8627458794,"source":"CELESTRAK","updated_at":"2026-09-21T09:00:33.746423Z"}}